Dublin, Ireland

9:39 AM IST on September 25, 2017 (GMT +0100)
Dublin International

Weather History for EIDW - February, 2013

Change the Weather History Date:

Thursday, February 21, 2013

  Actual Average Record
Temperature  
Mean Temperature 36 °F -  
Max Temperature 37 °F 48 °F 55 °F (2012)
Min Temperature 35 °F 37 °F 32 °F (2002)
Degree Days  
Heating Degree Days 29    
Moisture  
Dew Point 28 °F    
Average Humidity 71    
Maximum Humidity 75    
Minimum Humidity 58    
Precipitation  
Precipitation 0.00 in 0.07 in - ()
Sea Level Pressure  
Sea Level Pressure 30.16 in    
Wind  
Wind Speed 17 mph ()    
Max Wind Speed 22 mph    
Max Gust Speed -    
Visibility 6.7 miles    
Events      
Averages and records for this station are not official NWS values.
T = Trace of Precipitation, MM = Missing Value Source: Averaged Metar Reports

Daily Weather History Graph

Daily Weather History Graph

Search for Another Location

Airport or City:

Trip Planner

Search our weather history database for the weather conditions in past years. The results will help you decide how hot, cold, wet, or windy it might be!

Date:

Astronomy

Feb. 21, 2013 Rise Set
Actual Time 7:30 AM GMT 5:47 PM GMT
Civil Twilight 6:54 AM GMT 6:23 PM GMT
Nautical Twilight 6:14 AM GMT 7:03 PM GMT
Astronomical Twilight 5:34 AM GMT 7:44 PM GMT
Moon 1:25 PM GMT (2/21) 4:50 AM GMT (2/21)
Length of Visible Light 11h 28m
Length of Day
10h 17m
Waxing Gibbous, 82% of the Moon is Illuminated
Feb 21
Waxing Gibbous
Feb 25
Full
Mar 4
Last Quarter
Mar 11
New
Mar 19
First Quarter

Hourly Weather History & Observations

Time (GMT) Temp. Windchill Dew Point Humidity Pressure Visibility Wind Dir Wind Speed Gust Speed Precip Events Conditions
12:00 AM 38 °F - 31 °F 68% 30.17 in 11 mi ESE 17.9 mph - -   Mostly Cloudy
12:00 AM 39.2 °F 29.6 °F 32.0 °F 75% 30.15 in 6.2 mi ESE 19.6 mph - N/A   Mostly Cloudy
12:30 AM 39.2 °F 29.6 °F 30.2 °F 70% 30.15 in 6.2 mi ESE 19.6 mph - N/A   Mostly Cloudy
1:00 AM 37.4 °F 27.5 °F 30.2 °F 75% 30.15 in 6.2 mi SE 18.4 mph - N/A   Mostly Cloudy
1:30 AM 37.4 °F 27.8 °F 30.2 °F 75% 30.15 in 6.2 mi SE 17.3 mph - N/A   Mostly Cloudy
2:00 AM 37.4 °F 27.5 °F 30.2 °F 75% 30.15 in 6.2 mi SE 18.4 mph - N/A   Mostly Cloudy
2:30 AM 37.4 °F 27.2 °F 30.2 °F 75% 30.15 in 6.2 mi SE 19.6 mph - N/A   Mostly Cloudy
3:00 AM 37.4 °F 27.5 °F 28.4 °F 70% 30.15 in 6.2 mi ESE 18.4 mph - N/A   Mostly Cloudy
3:30 AM 37.4 °F 27.2 °F 30.2 °F 75% 30.15 in 6.2 mi ESE 19.6 mph - N/A   Mostly Cloudy
4:00 AM 37.4 °F 26.9 °F 30.2 °F 75% 30.15 in 6.2 mi ESE 20.7 mph - N/A   Mostly Cloudy
4:30 AM 35.6 °F 24.2 °F 28.4 °F 75% 30.15 in 6.2 mi SE 21.9 mph - N/A   Mostly Cloudy
5:00 AM 35.6 °F 25.2 °F 28.4 °F 75% 30.15 in 6.2 mi SE 18.4 mph - N/A   Mostly Cloudy
5:30 AM 35.6 °F 24.2 °F 28.4 °F 75% 30.15 in 6.2 mi SE 21.9 mph - N/A   Mostly Cloudy
6:00 AM 35 °F - 28 °F 66% 30.18 in 11 mi SE 20.1 mph - -   Mostly Cloudy
6:00 AM 35.6 °F 24.5 °F 28.4 °F 75% 30.15 in 6.2 mi SE 20.7 mph - N/A   Mostly Cloudy
6:30 AM 35.6 °F 24.8 °F 26.6 °F 70% 30.15 in 6.2 mi SE 19.6 mph - N/A   Mostly Cloudy
7:00 AM 35.6 °F 25.2 °F 28.4 °F 75% 30.15 in 6.2 mi ESE 18.4 mph - N/A   Mostly Cloudy
7:30 AM 35.6 °F 25.2 °F 28.4 °F 75% 30.15 in 6.2 mi SE 18.4 mph - N/A   Mostly Cloudy
8:00 AM 35.6 °F 25.2 °F 26.6 °F 70% 30.15 in 6.2 mi SE 18.4 mph - N/A   Mostly Cloudy
8:30 AM 35.6 °F 24.8 °F 28.4 °F 75% 30.18 in 6.2 mi SE 19.6 mph - N/A   Mostly Cloudy
9:00 AM 35.6 °F 25.5 °F 28.4 °F 75% 30.18 in 6.2 mi SE 17.3 mph - N/A   Mostly Cloudy
9:30 AM 35.6 °F 25.5 °F 28.4 °F 75% 30.18 in 6.2 mi SE 17.3 mph - N/A   Mostly Cloudy
10:00 AM 35.6 °F 25.5 °F 28.4 °F 75% 30.18 in 6.2 mi SE 17.3 mph - N/A   Mostly Cloudy
10:30 AM 35.6 °F 25.5 °F 28.4 °F 75% 30.18 in 6.2 mi ESE 17.3 mph - N/A   Mostly Cloudy
11:00 AM 35.6 °F 25.2 °F 28.4 °F 75% 30.18 in 6.2 mi SE 18.4 mph - N/A   Mostly Cloudy
11:30 AM 35.6 °F 25.2 °F 28.4 °F 75% 30.18 in 6.2 mi SE 18.4 mph - N/A   Mostly Cloudy
12:00 PM 36 °F - 28 °F 61% 30.21 in 12 mi SE 17.9 mph - -   Mostly Cloudy
12:00 PM 35.6 °F 25.5 °F 28.4 °F 75% 30.18 in 6.2 mi SE 17.3 mph - N/A   Mostly Cloudy
12:30 PM 37.4 °F 26.9 °F 28.4 °F 70% 30.18 in 6.2 mi SE 20.7 mph - N/A   Mostly Cloudy
1:00 PM 37.4 °F 27.2 °F 28.4 °F 70% 30.18 in 6.2 mi SE 19.6 mph - N/A   Mostly Cloudy
1:30 PM 35.6 °F 24.5 °F 26.6 °F 70% 30.15 in 6.2 mi SE 20.7 mph - N/A   Mostly Cloudy
2:00 PM 37.4 °F 27.2 °F 26.6 °F 65% 30.15 in 6.2 mi SE 19.6 mph - N/A   Mostly Cloudy
2:30 PM 37.4 °F 27.2 °F 28.4 °F 70% 30.15 in 6.2 mi SE 19.6 mph - N/A   Mostly Cloudy
3:00 PM 37.4 °F 27.2 °F 26.6 °F 65% 30.15 in 6.2 mi SE 19.6 mph - N/A   Mostly Cloudy
3:30 PM 37.4 °F 28.2 °F 26.6 °F 65% 30.15 in 6.2 mi SE 16.1 mph - N/A   Mostly Cloudy
4:00 PM 37.4 °F 27.5 °F 28.4 °F 70% 30.15 in 6.2 mi SE 18.4 mph - N/A   Mostly Cloudy
4:30 PM 37.4 °F 27.8 °F 26.6 °F 65% 30.15 in 6.2 mi SE 17.3 mph - N/A   Mostly Cloudy
5:00 PM 35.6 °F 25.5 °F 26.6 °F 70% 30.15 in 6.2 mi ESE 17.3 mph - N/A   Mostly Cloudy
5:30 PM 35.6 °F 25.9 °F 26.6 °F 70% 30.15 in 6.2 mi SE 16.1 mph - N/A   Mostly Cloudy
6:00 PM 36 °F - 27 °F 58% 30.18 in 19 mi ESE 13.4 mph - -   Mostly Cloudy
6:00 PM 35.6 °F 26.2 °F 26.6 °F 70% 30.15 in 6.2 mi ESE 15.0 mph - N/A   Mostly Cloudy
6:30 PM 35.6 °F 27.1 °F 26.6 °F 70% 30.15 in 6.2 mi ESE 12.7 mph - N/A   Mostly Cloudy
7:00 PM 35.6 °F 27.1 °F 26.6 °F 70% 30.15 in 6.2 mi ESE 12.7 mph - N/A   Mostly Cloudy
7:30 PM 35.6 °F 27.1 °F 26.6 °F 70% 30.15 in 6.2 mi ESE 12.7 mph - N/A   Mostly Cloudy
8:00 PM 35.6 °F 27.1 °F 26.6 °F 70% 30.15 in 6.2 mi ESE 12.7 mph - N/A   Mostly Cloudy
8:30 PM 35.6 °F 27.1 °F 26.6 °F 70% 30.15 in 6.2 mi ESE 12.7 mph - N/A   Mostly Cloudy
9:00 PM 35.6 °F 27.5 °F 26.6 °F 70% 30.15 in 6.2 mi ESE 11.5 mph - N/A   Mostly Cloudy
9:30 PM 35.6 °F 27.1 °F 26.6 °F 70% 30.15 in 6.2 mi ESE 12.7 mph - N/A   Mostly Cloudy
10:00 PM 35.6 °F 27.5 °F 26.6 °F 70% 30.15 in 6.2 mi ESE 11.5 mph - N/A   Mostly Cloudy
10:30 PM 35.6 °F 26.6 °F 26.6 °F 70% 30.15 in 6.2 mi SE 13.8 mph - N/A   Mostly Cloudy
11:00 PM 35.6 °F 26.2 °F 24.8 °F 65% 30.15 in 6.2 mi ESE 15.0 mph - N/A   Mostly Cloudy
11:30 PM 35.6 °F 26.2 °F 26.6 °F 70% 30.15 in 6.2 mi ESE 15.0 mph - N/A   Mostly Cloudy